7 * 24
多渠道服务支持
MOLNIYA 1-53 是一颗俄罗斯军用通信卫星,于2000年发射,运行在高椭圆轨道上,主要用于军事通信和电视广播。该卫星属于“闪电”(Molniya)系列,设计寿命约10年,由俄罗斯航天部队运营。其轨道特性使其在高纬度地区具有较长的可见时间,适合俄罗斯广阔领土的通信需求。MOLNIYA 1-53 在退役前为俄罗斯的国家安全和战略通信提供了重要支持。
| 数据来源 | 国际轨道数据 |
| 星历时间: | 2025-10-25T15:21:52+0800 4天前 查看轨道信息 |
| 半长轴: | 26560.296km |
| 偏心率: | 0.7073709 |
| 轨道倾角: | 63.252° |
| 近地点辐角 | 283.764° |
| 升交点赤经 | 67.519° |
| 平近点角 | 12.265° |
| 近地点: | 1394.18km |
| 远地点: | 38970.142km |
| 周期: | 717.975分钟 |
| 每日圈数: | 2.005642 |